Location: Dammartin
(48.9032°N, 1.6195°E)
Time: 09:27:02
(UTC+00:00)

ATLAS 2AS CENTAUR R/B - Pass Details

Date: 03 February 2023
Orbit: 986 x 1226 km, 63.7° (Epoch: 27 March)

Event Time Altitude Azimuth Distance (km) Brightness Sun altitude
Rises 18:21:53 0° 317° (NW) 3,975 6.2 -14.7°
Reaches altitude 10° 18:24:41 10° 315° (NW) 2,977 5.6 -15.1°
Maximum altitude 18:31:34 61° 237° (WSW) 1,188 3.2 -16.2°
Drops below altitude 10° 18:38:03 10° 158° (SSE) 2,802 4.7 -17.3°
Sets 18:40:37 0° 155° (SSE) 3,727 5.4 -17.7°
